Regional Weather Roundup
Issued by NWS

Home | Current Version | Previous Version | Graphics & Text | Print | Product List | Glossary On
Versions: 1 2 3 4 5 6 7 8 9 10 11 12 13 14 15 16 17 18 19 20 21 22 23 24 25 26 27 28 29 30 31 32 33 34 35 36 37 38 39 40 41 42 43 44 45 46 47 48 49 50
582
ASUS43 KIND 211200
RWRIN

WEATHER ROUNDUP FOR INDIANA
NATIONAL WEATHER SERVICE INDIANAPOLIS IN
800 AM EDT FRI JUL 21 2017

NOTE: "FAIR" INDICATES FEW OR NO CLOUDS BELOW 12,000 FEET WITH NO
SIGNIFICANT WEATHER AND/OR OBSTRUCTIONS TO VISIBILITY.

* - STATION DOES NOT REPORT WEATHER SUCH AS PRECIPITATION OR FOG.

+ - STATION NOT QUALITY CONTROLLED BY THE NATIONAL WEATHER SERVICE.
    USE DATA WITH CAUTION...ESPECIALLY DEWPOINT AND RELATIVE
    HUMIDITY OBSERVATIONS.

INZ001>003-010>013-019-020-211300-
NORTHWEST INDIANA

CITY           SKY/WX    TMP DP  RH WIND       PRES   REMARKS
GARY /AIRPORT/ PTSUNNY   73  72  94 CALM      29.99F
MICHIGAN CITY+ CLOUDY    70  70 100 E6        30.00F
MONTICELLO +   LGT RAIN  71  69  95 SE3       30.00R
6HR MIN TEMP:  70; 6HR MAX TEMP:  77; 6HR PCP:  0.47;

RENSSELAER +   CLOUDY    70  68  94 CALM      29.99S

$$

LMZ046-743>745-211300-
SOUTHERN LAKE MICHIGAN

STATION/POSITION TIME  TEMP    WIND        PRES    WAVE
                       AIR SEA DIR/SP/G            HT
                 (UTC) (F)     (DEG/KT/KT) (MB)    (FT)
BURNS HARBOR     1140   73      20/  3/  3 1016.3S
MICHIGAN CITY    1130   73     160/  2/  2   N/A
5NW MICH CITY    1150   74 74   70/  6/  8   N/A     0

$$

INZ004-005-014>016-021>024-211300-
NORTH CENTRAL INDIANA

CITY           SKY/WX    TMP DP  RH WIND       PRES   REMARKS
ELKHART        CLOUDY    68  66  94 CALM      30.03R
GOSHEN         CLOUDY    69  66  90 N5        30.03R FOG
6HR MIN TEMP:  66; 6HR MAX TEMP:  73;

SOUTH BEND     CLOUDY    68  68 100 CALM      30.03R
6HR MIN TEMP:  66; 6HR MAX TEMP:  69;


$$

INZ006>009-017-018-025>027-211300-
NORTHEAST INDIANA

CITY           SKY/WX    TMP DP  RH WIND       PRES   REMARKS
ANGOLA *+      CLOUDY    68  61  77 CALM      30.02R VSB 1/4
FORT WAYNE     CLOUDY    73  69  87 W3        30.03R
6HR MIN TEMP:  73; 6HR MAX TEMP:  76;

KENDALLVILLE + CLOUDY    68  68 100 CALM      30.03R FOG

$$

INZ028-029-035-036-043>045-051>053-211300-
WEST CENTRAL INDIANA

CITY           SKY/WX    TMP DP  RH WIND       PRES   REMARKS
LAFAYETTE      CLOUDY    70  70 100 SW3       30.00R
6HR MIN TEMP:  70; 6HR MAX TEMP:  78; 6HR PCP:  1.75;

TERRE HAUTE    PTSUNNY   77  70  79 E6        30.02S
6HR MIN TEMP:  76; 6HR MAX TEMP:  81;


$$

INZ030>032-037>040-046>048-054>057-064-065-211300-
CENTRAL INDIANA

CITY           SKY/WX    TMP DP  RH WIND       PRES   REMARKS
COLUMBUS       CLOUDY    73  70  88 N7        30.05R
INDIANAPOLIS   TSTM      73  69  87 E13       30.02S FOG
6HR MIN TEMP:  73; 6HR MAX TEMP:  80; 6HR PCP:  0.09;

-EAGLE CREEK   TSTM      72  68  87 SE3       30.01F
6HR MIN TEMP:  72; 6HR MAX TEMP:  82; 6HR PCP:  0.07;

KOKOMO +       LGT RAIN  71  70  96 W5        30.02F
6HR MIN TEMP:  71; 6HR MAX TEMP:  79; 6HR PCP:  0.34;

MT COMFORT *+  CLOUDY    70  68  94 N3        30.05R
SHELBYVILLE    CLOUDY    73  68  84 N3        30.04S
6HR MIN TEMP:  73; 6HR MAX TEMP:  78; 6HR PCP:  0.56;


$$

INZ033-034-041-042-049-050-058-059-211300-
EAST CENTRAL INDIANA

CITY           SKY/WX    TMP DP  RH WIND       PRES   REMARKS
MUNCIE         LGT RAIN  72  68  87 E3        30.04F
6HR MIN TEMP:  72; 6HR MAX TEMP:  82; 6HR PCP:  0.33;

RICHMOND +     LGT RAIN  68  68 100 NW13      30.07R

$$

INZ060-061-067>069-081>083-085>088-211300-
SOUTHWEST INDIANA

CITY           SKY/WX    TMP DP  RH WIND       PRES   REMARKS
EVANSVILLE     CLOUDY    79  74  84 SW5       30.02R
6HR MIN TEMP:  76; 6HR MAX TEMP:  80;

HUNTINGBURG *+ MOSUNNY   76  74  93 S5        30.03R
6HR MIN TEMP:  75; 6HR MAX TEMP:  79;


$$

INZ062-063-066-070>080-084-089>092-211300-
SOUTH CENTRAL AND SOUTHEAST INDIANA

CITY           SKY/WX    TMP DP  RH WIND       PRES   REMARKS
BLOOMINGTON    PTSUNNY   79  71  76 N6        30.04S
6HR MIN TEMP:  77; 6HR MAX TEMP:  79;

MADISON *+     PTSUNNY   77  72  83 CALM      30.05R
SEYMOUR +      CLOUDY    79  73  83 CALM      30.05R

$$





USA.gov is the U.S. government's official web portal to all federal, state and local government web resources and services.